AO-07 1 07530U 74089B 20092.94368229 -.00000015 00000-0 19214-3 0 9996 2 07530 101.7919 063.1370 0012313 149.8503 245.5021 12.53642795076405 UO-11 1 14781U 84021B 20093.12140175 .00000066 00000-0 14140-4 0 9997 2 14781 97.5949 108.8754 0010053 92.2808 267.9557 14.83153518941517 LO-19 1 20442U 90005G 20093.12281144 .00000014 00000-0 21404-4 0 9993 2 20442 098.6846 040.1454 0012268 024.8141 335.3631 14.32948789577628 HUBBLE 1 20580U 90037B 20093.19055399 .00000421 00000-0 14642-4 0 9997 2 20580 028.4690 104.0638 0002651 356.3238 103.7395 15.09362056444436 MET-2/21 1 22782U 93055A 20093.10823098 .00000033 00000-0 16493-4 0 9991 2 22782 082.5459 294.1763 0023658 089.3690 025.8389 13.83824505342482 AO-27 1 22825U 93061C 20093.74004675 -.00000003 00000-0 17081-4 0 9990 2 22825 98.9239 94.2855 0007533 233.2243 126.8248 14.30081301383265 IO-26 1 22826U 93061D 20093.25455265 .00000002 00000-0 18704-4 0 9993 2 22826 098.9180 093.7439 0008185 222.1347 137.9206 14.30416305383150 FO-29 1 24278U 96046B 20093.30116864 -.00000025 00000-0 11708-4 0 9990 2 24278 98.5724 213.1459 0349877 211.9169 146.0343 13.53096991166833 NOAA-15 1 25338U 98030A 20093.30220133 .00000034 00000-0 32765-4 0 9993 2 25338 98.7251 118.7119 0011447 121.8181 238.4115 14.25957034138389 GO-32 1 25397U 98043D 20093.47256263 -.00000007 00000-0 16425-4 0 9999 2 25397 98.7217 35.5755 0000327 331.1988 28.9172 14.23682032128963 ISS 1 25544U 98067A 20093.89285207 .00015395 00000-0 29042-3 0 9998 2 25544 51.6449 1.0420 0003937 88.3209 34.3240 15.48660782220344 NO-44 1 26931U 01043C 20093.03427130 -.00000012 00000-0 27147-4 0 9992 2 26931 67.0527 339.6042 0005992 265.5823 94.4594 14.30571848966213 SO-50 1 27607U 02058C 20093.12536657 .00000027 00000-0 24585-4 0 9993 2 27607 64.5545 247.7345 0057529 196.9585 162.9597 14.75620881929591 CO-55 1 27844U 03031E 20093.03044840 .00000058 00000-0 45896-4 0 9998 2 27844 098.6845 101.9113 0008688 277.6175 082.4016 14.22228936869236 CO-57 1 27848U 03031J 20093.03492736 .00000043 00000-0 39338-4 0 9991 2 27848 098.6915 102.4650 0008620 291.2479 068.7778 14.21816911869085 RS-22 1 27939U 03042A 20093.80541584 .00000128 00000-0 31572-4 0 9991 2 27939 98.0769 229.6835 0011989 228.0837 131.9350 14.66847884882921 NOAA-18 1 28654U 05018A 20093.22770201 .00000087 00000-0 71764-4 0 9998 2 28654 99.0533 148.9122 0015290 87.1946 273.0975 14.12499722766255 CO-58 1 28895U 05043F 20093.12663425 .00000137 00000-0 35040-4 0 9994 2 28895 097.9962 231.6747 0017428 157.5228 202.6742 14.63751755769445 Falconsat-3 1 30776U 07006E 20093.26324891 .00003407 00000-0 91825-4 0 9998 2 30776 35.4351 47.3531 0003447 227.1609 132.8828 15.37452753725103 CO-65 1 32785U 08021C 20093.77074135 .00000246 00000-0 32100-4 0 9996 2 32785 97.5695 85.1341 0013824 30.4635 329.7383 14.88440538646689 AAUSAT2 1 32788U 08021F 20093.75479105 .00000680 00000-0 67110-4 0 9994 2 32788 97.4931 101.6165 0010462 315.6049 44.4333 14.94991149648105 DO-64 1 32789U 08021G 20093.60627004 .00001622 00000-0 11058-3 0 9998 2 32789 97.4275 139.0315 0011414 208.6249 151.4354 15.07560354650481 CO-66 1 32791U 08021J 20092.96253369 .00000281 00000-0 33798-4 0 9994 2 32791 097.5393 090.5017 0013345 004.6854 355.4488 14.91003865646982 RS-30 1 32953U 08025A 20093.90326836 .00000037 00000-0 19437-3 0 9995 2 32953 82.5050 324.9057 0018401 217.6307 142.3482 12.43094904538246 PRISM 1 33493U 09002B 20092.85438615 .00000539 00000-0 52426-4 0 9996 2 33493 098.1395 030.0003 0014000 314.5776 045.4301 14.96965663608245 NOAA-19 1 33591U 09005A 20093.36789141 .00000051 00000-0 52958-4 0 9997 2 33591 99.1971 96.7322 0013008 290.7713 69.2064 14.12400904574658 TISAT-1 1 36799U 10035E 20093.21711046 .00000485 00000-0 54836-4 0 9996 2 36799 098.1870 260.5909 0011538 214.7226 145.3239 14.91305788527560 JUGNU 1 37839U 11058B 20093.15206198 .00000307 00000-0 21498-4 0 9999 2 37839 019.9623 025.4847 0018794 266.7909 223.5961 14.12675807437980 SRMSAT 1 37841U 11058D 20093.69144659 .00000298 00000-0 18657-4 0 9996 2 37841 19.9719 84.9707 0012028 131.0628 25.0041 14.10654181437557 AO-71 1 37854U 11061E 20093.08861491 .00000895 00000-0 53086-4 0 9995 2 37854 101.7054 144.9490 0158579 288.8753 069.5324 15.07105164459977 HRBE 1 37855U 11061F 20092.98470271 .00000774 00000-0 46337-4 0 9993 2 37855 101.7194 141.9816 0171253 301.8947 56.5701 15.06125716460169 ALMASAT-1 1 38078U 12006B 20093.59168792 .00297804 43425-4 39859-3 0 9995 2 38078 69.4110 142.9176 0047928 169.6844 344.6222 16.03964670443025 HORYU-2 1 38340U 12025D 20092.86894891 .00000150 00000-0 29844-4 0 9991 2 38340 098.2903 144.5100 0010142 286.8912 073.1184 14.75826727413258 RS-40 1 38735U 12041C 20093.52266916 .00000002 00000-0 -55729-4 0 9990 2 38735 82.4777 47.9995 0016774 331.4699 28.5465 12.42579033348423 BEESAT-3 1 39135U 13015F 20093.61644806 .00000997 00000-0 57631-4 0 9991 2 39135 64.8683 186.3191 0042797 259.3349 100.2957 15.18041033384095 BEESAT-2 1 39136U 13015G 20093.30380051 .00000843 00000-0 51586-4 0 9990 2 39136 64.8673 192.0463 0028900 280.8246 78.9628 15.17413566383959 ZACUBE-1 1 39417U 13066B 20093.09939286 .00000187 00000-0 29703-4 0 9991 2 39417 097.5649 095.3752 0059215 166.8082 193.4696 14.81242586343739 TRITON-1 1 39427U 13066M 20092.86444278 .00000253 00000-0 48535-4 0 9996 2 39427 97.7175 58.0848 0112834 323.7498 35.6099 14.67971215340610 GOMX-1 1 39430U 13066Q 20093.76915350 .00000232 00000-0 50568-4 0 9990 2 39430 97.7840 36.8982 0152450 63.1992 298.4712 14.59367674338761 LO-74 1 39440U 13066AA 20093.76571071 .00000205 00000-0 35494-4 0 9990 2 39440 97.6261 80.4740 0078997 225.2628 134.2135 14.75981048342615 AO-73 1 39444U 13066AE 20093.00587507 .00000263 00000-0 38434-4 0 9993 2 39444 97.5599 97.4722 0058534 159.7241 200.6317 14.82087797342635 SPROUT 1 39770U 14029E 20093.81837753 .00000772 00000-0 90869-4 0 9990 2 39770 97.8904 200.4571 0008113 208.7890 151.2880 14.87670109317819 DUCHIFAT-1 1 40021U 14033M 20093.77449771 .00000349 00000-0 41248-4 0 9997 2 40021 97.9390 24.5672 0012882 170.5742 189.5720 14.90850925314619 NANOSATCBR1 1 40024U 14033Q 20093.75537591 .00000369 00000-0 44103-4 0 9991 2 40024 97.9249 21.1682 0012106 174.7590 185.3756 14.90027923314487 DTUSAT-2 1 40030U 14033W 20093.06303441 .00000249 00000-0 32717-4 0 9992 2 40030 097.9025 015.0223 0011676 179.8051 180.3173 14.88678520313645 EO-80 1 40032U 14033Y 20093.21370191 .00000228 00000-0 30432-4 0 9996 2 40032 097.9032 015.1744 0011653 180.0752 180.0465 14.88625773313644 ANTELSAT 1 40034U 14033AA 20093.11263645 .00000173 00000-0 33117-4 0 9994 2 40034 097.7248 312.4223 0057259 244.8820 114.6442 14.74225838310632 VELOX-1 1 40057U 14034E 20093.80507659 .00000269 00000-0 45056-4 0 9993 2 40057 98.2665 228.7509 0011489 34.5276 325.6679 14.77829846310465 DAURIA DX 1 1 40071U 14037C 20093.79759735 .00000091 00000-0 19186-4 0 9992 2 40071 98.4549 268.0278 0008992 27.6197 332.5499 14.81346814310050 HODOYOSHI-1 1 40299U 14070B 20093.69942384 .00000621 00000-0 28489-4 0 9999 2 40299 97.3259 172.1838 0014803 101.3706 49.7198 15.23985442300278 CHUBUSAT-1 1 40300U 14070C 20093.70110641 .00000685 00000-0 32435-4 0 9993 2 40300 97.2938 165.1050 0021135 117.3173 358.9956 15.22419660299988 QSAT-EOS 1 40301U 14070D 20093.77200564 .00001995 00000-0 77909-4 0 9995 2 40301 97.2966 169.9350 0027076 96.1286 56.0122 15.26728731300388 FIREBIRD FU3 1 40377U 15003B 20093.16062111 .00001557 00000-0 63799-4 0 9998 2 40377 099.1043 137.7368 0124088 208.3573 151.0867 15.19773653285713 FIREBIRD FU4 1 40378U 15003C 20093.67235859 .00001718 00000-0 69785-4 0 9996 2 40378 99.1045 138.4474 0124305 206.5255 152.9579 15.19791760285800 GRIFEX 1 40379U 15003D 20093.59272631 .00001072 00000-0 49228-4 0 9990 2 40379 99.1118 130.7000 0132559 230.4754 128.4697 15.16211255285354 NO-84 1 40654U 15025D 20092.28502122 .00010850 00000-0 13435-3 0 08922 2 40654 054.9882 296.0465 0120220 349.6825 010.1775 15.52494001157031 DEORBITSAIL 1 40719U 15032E 20093.76014761 .00000369 00000-0 59521-4 0 9992 2 40719 97.8791 344.2322 0017814 91.7516 268.5735 14.76946917254926 NUDT-PHONESAT 1 40900U 15049B 20093.74215470 .00002252 00000-0 96361-4 0 9996 2 40900 97.4338 105.3546 0010883 247.4538 168.0285 15.23814935251667 XW-2A 1 40903U 15049E 20093.76603361 .00002218 00000-0 52491-4 0 9999 2 40903 97.2973 142.6352 0013362 169.8746 327.1266 15.42808856254807 XW-2C 1 40906U 15049H 20093.81073209 .00000775 00000-0 43773-4 0 9999 2 40906 97.4771 96.2807 0013023 278.1461 205.5410 15.15988841250796 XW-2D 1 40907U 15049J 20093.79248843 .00000753 00000-0 42364-4 0 9996 2 40907 97.4761 95.9594 0012361 275.0308 81.1842 15.16210042250806 LILACSAT-2 1 40908U 15049K 20093.76102189 .00000085 00000-0 82980-5 0 9993 2 40908 97.4904 94.3849 0014257 286.0624 126.0834 15.13989086250540 XW-2E 1 40909U 15049L 20093.82865919 .00001029 00000-0 53468-4 0 9995 2 40909 97.4647 99.3454 0011648 265.1879 217.5803 15.18290506251059 XW-2F 1 40910U 15049M 20093.74233844 .00001057 00000-0 55560-4 0 9990 2 40910 97.4692 98.3685 0012816 264.0238 150.6298 15.17801129250851 XW-2B 1 40911U 15049N 20093.71832394 .00000892 00000-0 49650-4 0 9992 2 40911 97.4768 96.5769 0012255 275.9225 143.4676 15.16138108250694 DCBB 1 40912U 15049P 20093.78906866 .00001280 00000-0 62229-4 0 9995 2 40912 97.4504 102.4809 0013136 240.3135 171.9708 15.20176709251226 TW-1C 1 40926U 15051B 20093.71802639 .00024478 00000-0 27049-3 0 9993 2 40926 97.0939 145.1038 0006779 29.7010 118.5915 15.63011277255184 TW-1A 1 40928U 15051D 20093.83722925 .00003422 00000-0 81454-4 0 9994 2 40928 97.1178 123.4967 0012627 100.9550 73.0195 15.42213325253719 IO-86 1 40931U 15052B 20093.70203907 .00000699 00000-0 81997-5 0 9995 2 40931 5.9946 155.6054 0014025 286.6859 73.1834 14.76631292244045 LQSat 1 40958U 15057A 20093.17871845 .00000016 00000-0 10086-4 0 9995 2 40958 097.8605 159.0060 0018942 038.9620 321.2949 14.73113176241287 ATHENOXAT-1 1 41168U 15077C 20093.68504070 .00002212 00000-0 80621-4 0 9992 2 41168 14.9877 257.2829 0011314 153.8249 206.2644 15.14222191237841 ChubuSat-2 1 41338U 16012B 20093.38932165 .00000294 00000-0 16135-4 0 9995 2 41338 31.0026 109.9117 0013726 83.0600 277.1596 15.00266063226306 ChubuSat-3 1 41339U 16012C 20093.45888047 .00000323 00000-0 18323-4 0 9997 2 41339 31.0110 107.1960 0013541 90.0360 270.1828 15.00433269226319 Horyu-4 1 41340U 16012D 20093.31425976 .00000452 00000-0 27456-4 0 9992 2 41340 31.0046 96.6498 0013940 113.2524 246.9581 15.01452642226426 OUFTI-1 1 41458U 16025C 20092.98069893 .00003256 00000-0 16469-3 0 9996 2 41458 98.0964 199.5601 0165344 107.1805 254.7596 15.06652876215963 e-st@r-II 1 41459U 16025D 20093.73522983 .00002078 00000-0 10726-3 0 9996 2 41459 98.0957 199.8280 0167220 106.4828 255.4848 15.06234225216046 AAUSAT4 1 41460U 16025E 20093.78702512 .00003096 00000-0 15378-3 0 9990 2 41460 98.0926 201.9488 0155829 96.1069 265.7977 15.08457729216239 LO-87 1 41557U 16033B 20093.67307397 .00001315 00000-0 51017-4 0 9999 2 41557 97.4026 184.4057 0013496 3.5459 356.5874 15.27848185214206 NuSat2 1 41558U 16033C 20093.80168798 .00001482 00000-0 53887-4 0 9997 2 41558 97.4072 186.5580 0012463 1.5594 358.5683 15.29812837214323 Lapan A3 1 41603U 16040E 20093.76491458 .00000107 00000-0 80829-5 0 9993 2 41603 97.3183 149.6407 0015143 105.4234 27.7485 15.19813416209644 Swayam 1 41607U 16040J 20093.10900429 .00001504 00000-0 64778-4 0 9994 2 41607 097.3261 154.2546 0014949 096.1428 264.1513 15.24025076209793 Pratham 1 41783U 16059A 20093.21633599 .00000045 00000-0 17809-4 0 9994 2 41783 98.0258 150.7850 0033323 194.0074 166.0207 14.63045346187736 AlSat 1N 1 41789U 16059G 20093.64120254 .00000075 00000-0 23086-4 0 9993 2 41789 98.0287 153.8405 0028376 180.0931 180.0275 14.64306721187934 ScatSat 1 41790U 16059H 20093.67604378 .00000009 00000-0 13035-4 0 9992 2 41790 98.1705 136.1811 0006153 142.7769 217.3854 14.50905388186238 TY-1 1 41844U 16066D 20093.81640046 .00000911 00000-0 39636-4 0 9995 2 41844 97.4057 102.8315 0013265 248.3224 101.7791 15.24729216188739 Pegasus-1 1 41846U 16066F 20092.87706665 .00000302 00000-0 54982-4 0 9997 2 41846 098.6715 142.0943 0368165 101.2081 263.0716 14.37730750177968 CAS-2T 1 41847U 16066G 20092.88071524 .00000077 00000-0 21125-4 0 9990 2 41847 098.6644 142.5853 0366854 097.0839 267.2206 14.38052032178413 EO-88 1 42017U 17008BX 20092.97977110 .00001635 00000-0 65836-4 0 9991 2 42017 97.3667 161.6412 0005085 219.6001 140.4867 15.26274731173887 nSIGHT1 1 42726U 98067MF 20093.63046236 .00257984 39558-4 45623-3 0 9997 2 42726 51.6248 250.7947 0006858 284.7336 75.2914 16.01396858163514 CAS-4B 1 42759U 17034B 20093.86447993 .00000089 00000-0 18938-4 0 9996 2 42759 43.0187 82.3483 0012459 277.7005 150.8216 15.09776065154547 CAS-4A 1 42761U 17034D 20093.88070854 .00000248 00000-0 28533-4 0 9998 2 42761 43.0182 81.6076 0012898 277.9453 160.5975 15.09855444154540 UCLSat 1 42765U 17036A 20093.62188003 .00001300 00000-0 57575-4 0 9990 2 42765 97.3101 149.8695 0009690 297.1306 62.8942 15.23353296154449 NIUSat 1 42766U 17036B 20093.31874141 .00000848 00000-0 40570-4 0 9995 2 42766 97.3099 147.2524 0013805 289.5594 70.4151 15.21582743154116 LituanicaSAT 2 1 42768U 17036D 20093.16362539 .00002057 00000-0 88253-4 0 9997 2 42768 097.3154 149.2854 0012947 286.1617 073.8195 15.23775962154229 Aalto 1 1 42775U 17036L 20093.17758228 .00000687 00000-0 33284-4 0 9991 2 42775 097.3081 147.4653 0012207 289.9315 070.0606 15.21727286154071 URSA MAIOR 1 42776U 17036M 20093.37302021 .00000779 00000-0 37169-4 0 9998 2 42776 97.3093 147.9077 0012007 288.8817 71.1117 15.21898059154114 Max Valier Sat 1 42778U 17036P 20093.23705991 .00000861 00000-0 40104-4 0 9993 2 42778 97.3143 148.9484 0010541 293.2886 66.7241 15.22480176154130 Pegasus 1 42784U 17036V 20093.10629660 .00001079 00000-0 48716-4 0 9993 2 42784 097.3107 149.0868 0010314 300.0076 060.0137 15.23050146154155 NUDATSat 1 42787U 17036Y 20093.22688285 .00001543 00000-0 65983-4 0 9998 2 42787 097.3152 150.4288 0010278 300.4385 059.5837 15.24277419154083 SUCHAI 1 1 42788U 17036Z 20093.15734635 .00001308 00000-0 57549-4 0 9990 2 42788 097.3115 149.6562 0009827 298.1837 061.8407 15.23568451154268 SKCUBE 1 42789U 17036AA 20092.93309802 .00001302 00000-0 57566-4 0 9993 2 42789 097.3110 149.3128 0009722 299.5622 060.4645 15.23423759154147 VZLUSAT 1 1 42790U 17036AB 20092.88709498 .00001785 00000-0 75910-4 0 9992 2 42790 097.3132 150.0937 0009185 297.3408 062.6894 15.24268292154185 VENTA 1 1 42791U 17036AC 20093.16925053 .00001217 00000-0 54013-4 0 9993 2 42791 097.3108 149.5888 0009392 299.3533 060.6765 15.23415548154179 Robusta 1B 1 42792U 17036AD 20093.22463921 .00001201 00000-0 53008-4 0 9998 2 42792 97.3111 149.8248 0009288 298.9293 61.1012 15.23609956154213 D-SAT 1 42794U 17036AF 20093.35167271 .00000012 00000-0 66710-5 0 9997 2 42794 97.5030 129.7399 0124670 258.8463 99.8719 14.91242384151354 TechnoSat 1 42829U 17042E 20093.58662653 .00000047 00000-0 10079-4 0 9996 2 42829 97.5307 338.8831 0014318 171.6090 188.5371 14.91073630147989 QIKCOM-1 1 42983U 98067NF 20093.77926386 .00004399 00000-0 57567-4 0 9997 2 42983 51.6396 326.8120 0004410 128.5925 231.5464 15.60945984138469 AO-91 1 43017U 17073E 20093.20465686 .00000555 00000-0 49216-4 0 9995 2 43017 097.7253 008.3738 0255963 298.9792 058.5979 14.78865874127893 EcAMSat 1 43019U 98067NG 20093.61767616 .00009576 00000-0 10086-3 0 9996 2 43019 51.6409 316.0564 0004547 119.3410 240.8040 15.65027418220919 PICSAT 1 43132U 18004X 20093.16653524 .00001167 00000-0 50799-4 0 9991 2 43132 097.4530 164.9614 0008558 330.5289 029.5464 15.24224751123436 AO-92 1 43137U 18004AC 20092.92857656 .00001064 00000-0 46918-4 0 9995 2 43137 97.4518 164.5908 0008268 334.2126 25.8697 15.23972786123386 TianYi 2 1 43155U 18008A 20093.81086721 .00000782 00000-0 49718-4 0 9992 2 43155 97.4522 164.8115 0018832 53.0191 20.8795 15.11525469121493 Zhou Enlai 1 43156U 18008B 20093.81689865 .00000594 00000-0 39218-4 0 9996 2 43156 97.4569 164.6732 0016090 51.7994 15.2821 15.11056415121452 TianYi 6 1 43158U 18008D 20093.68922940 .00000590 00000-0 39460-4 0 9992 2 43158 97.4525 163.7003 0014944 50.8414 70.4403 15.10601018121385 S-Net G 1 43186U 18014G 20092.90406251 .00000535 00000-0 51772-4 0 9995 2 43186 097.6989 001.9691 0012548 116.4929 243.7581 14.96777498118248 S-Net H 1 43187U 18014H 20092.90388019 .00000538 00000-0 52014-4 0 9990 2 43187 097.6986 001.9496 0012552 116.4530 243.7981 14.96777383118249 S-Net J 1 43188U 18014J 20092.97059008 .00000543 00000-0 52464-4 0 9996 2 43188 097.6989 002.0420 0012562 116.3634 243.8879 14.96777147118253 S-Net K 1 43189U 18014K 20093.17153620 .00000458 00000-0 45051-4 0 9994 2 43189 097.6987 002.2089 0012552 115.5885 244.6635 14.96776826116837 FMN 1 1 43192U 18015A 20093.84052294 .00002292 00000-0 93607-4 0 9996 2 43192 97.4305 223.7663 0015607 2.1511 149.1124 15.25322196120378 Shaonian Xing 1 43199U 18015H 20093.84352801 .00001696 00000-0 69488-4 0 9997 2 43199 97.4090 222.2383 0016932 12.2219 138.7343 15.25559129120430 1KUNS-PF 1 43466U 98067NP 20093.57530873 .00104715 00000-0 39879-3 0 9992 2 43466 51.6293 292.0651 0003403 233.7164 126.3526 15.86736618108401 UBAKUSAT 1 43467U 98067NQ 20093.78245068 .00023931 00000-0 18575-3 0 9995 2 43467 51.6342 310.1517 0001770 131.6376 228.4774 15.71671544108191 EnduroSat One 1 43551U 98067NZ 20093.06766754 .00042274 00000-0 28121-3 0 9999 2 43551 051.6344 313.6024 0005252 172.0188 188.0896 15.74968647098311 EQUISat 1 43552U 98067PA 20092.90554517 .00027089 00000-0 21980-3 0 9997 2 43552 051.6370 320.8871 0005601 160.7330 199.3880 15.70515237098162 UiTMSat 1 1 43589U 98067PD 20093.61117956 .00033628 00000-0 25242-3 0 9999 2 43589 51.6331 316.4449 0005085 174.9130 185.1921 15.72256909 94022 Maya 1 1 43590U 98067PE 20092.90499245 .00031463 00000-0 23699-3 0 9995 2 43590 51.6337 319.9885 0005252 171.4149 188.6940 15.72208901 93847 Bhutan 1 1 43591U 98067PF 20093.32823453 .00030436 00000-0 22825-3 0 9994 2 43591 51.6343 317.6195 0005269 173.9613 186.1450 15.72331235 93919 SiriusSat 1 1 43595U 98067PG 20093.78424603 .00027766 00000-0 22521-3 0 9997 2 43595 51.6337 319.1284 0003336 146.4679 213.6530 15.70520219 93119 SiriusSat 2 1 43596U 98067PH 20093.20453445 .00027132 00000-0 22146-3 0 9991 2 43596 051.6347 322.8246 0003755 140.1415 219.9858 15.70380348093012 Tanusha-3 1 43597U 98067PJ 20093.77267957 .00047520 00000-0 29197-3 0 9991 2 43597 51.6312 311.4430 0003414 175.0838 185.0196 15.76743211 93210 SurfSat 1 43614U 18070B 20093.13451196 .00002628 00000-0 68605-4 0 9995 2 43614 093.0240 123.0507 0012439 272.6438 087.3392 15.38818499086740 CP-7 DAVE 1 43615U 18070C 20093.15921155 .00002455 00000-0 64336-4 0 9990 2 43615 093.0241 123.0554 0012598 271.9077 088.0735 15.38693324086748 ELFIN-B 1 43616U 18070D 20092.80750948 .00004661 00000-0 11734-3 0 9996 2 43616 93.0206 122.8315 0013044 276.0757 83.9011 15.39870807 86723 ELFIN-A 1 43617U 18070E 20093.17407686 .00004017 00000-0 10068-3 0 9990 2 43617 093.0259 123.4314 0012358 270.2439 089.7399 15.40024783086783 STARS-Me Mother 1 43640U 98067PQ 20093.68878335 .00013515 00000-0 14631-3 0 9992 2 43640 51.6365 332.0956 0005092 110.4551 249.6990 15.63898645 84866 CubeBel 1 1 43666U 18083E 20093.76504720 .00000951 00000-0 49934-4 0 9998 2 43666 97.4968 120.9541 0013253 263.0717 158.5509 15.18110723 79134 Changshagaoxin 1 43669U 18083H 20093.63484563 .00000803 00000-0 43782-4 0 9990 2 43669 97.4844 119.2491 0009253 254.8778 105.1432 15.17180138 79033 Ten-Koh 1 43677U 18084G 20092.87943192 .00000198 00000-0 26170-4 0 9992 2 43677 97.8720 210.1746 0017138 54.4394 305.8418 14.90263057 77530 PO-101 1 43678U 18084H 20093.80550087 -.00000290 00000-0 -23162-4 0 9997 2 43678 97.8725 212.2623 0011416 69.6210 290.6241 14.91612586 77745 IRVINE 01 1 43693U 18088D 20093.52386613 .00002456 00000-0 10385-3 0 9995 2 43693 85.0334 127.2714 0016856 203.0190 157.0299 15.22537294 77293 QO-100 1 43700U 18090A 20093.31854948 .00000137 00000-0 00000 0 0 9998 2 43700 0.0168 163.8153 0002286 233.0455 294.7280 1.00272322 5183 Reaktor Hello World 1 43743U 18096AA 20093.78459813 .00001417 00000-0 55646-4 0 9997 2 43743 97.4257 168.0289 0019107 40.0442 108.3961 15.27232424 74846 MinXSS-2 1 43758U 18099A 20092.99596134 .00000288 00000-0 31095-4 0 9993 2 43758 97.7116 166.1657 0017044 86.2391 274.0779 14.95607857 72521 AO-95 1 43770U 18099N 20093.13845192 .00000543 00000-0 54897-4 0 9994 2 43770 097.7114 165.8294 0016146 092.6099 267.6970 14.94938149072514 RANGE-B 1 43772U 18099Q 20093.16798104 .00000287 00000-0 31354-4 0 9997 2 43772 097.7180 166.2826 0015728 080.7677 279.5322 14.95114589072518 RANGE-A 1 43773U 18099R 20093.19524310 .00000156 00000-0 19457-4 0 9992 2 43773 097.7057 165.5835 0015023 080.7609 279.5310 14.94929379072514 MOVE-II 1 43780U 18099Y 20093.17466304 .00000098 00000-0 14093-4 0 9992 2 43780 097.7116 166.0272 0015131 090.3422 269.9533 14.95324159072515 SNUSat 2 1 43782U 18099AA 20092.91269801 -.00000115 00000-0 -52278-5 0 9998 2 43782 97.7111 165.7917 0014226 80.9940 279.2890 14.95211935 72481 SnugLite 1 43784U 18099AC 20092.88597861 .00000703 00000-0 68862-4 0 9992 2 43784 97.7078 165.6134 0016765 88.4106 271.9035 14.95305055 72490 ITASat 1 1 43786U 18099AE 20093.15284767 .00000630 00000-0 62289-4 0 9999 2 43786 097.7131 166.2082 0016851 086.6767 273.6381 14.95286443072537 EAGLET 1 1 43790U 18099AJ 20093.16425664 .00000307 00000-0 32723-4 0 9999 2 43790 097.7122 166.4403 0015178 090.6227 269.6733 14.95669112072240 ESEO 1 43792U 18099AL 20093.77172204 -.00000223 00000-0 -14901-4 0 9994 2 43792 97.7095 166.8987 0014866 85.6457 274.6463 14.95582135 72395 CSIM 1 43793U 18099AM 20092.96811183 .00000355 00000-0 36785-4 0 9999 2 43793 97.7086 166.0480 0014686 86.7620 273.5281 14.95971042 72250 Astrocast 0.1 1 43798U 18099AS 20092.96163198 .00000401 00000-0 41030-4 0 9991 2 43798 97.7115 166.3250 0014052 73.5580 286.7185 14.95841136 72510 JO-97 1 43803U 18099AX 20093.64450467 -.00000078 00000-0 -18616-5 0 9999 2 43803 97.7090 166.5297 0016666 85.3250 274.9874 14.95453223 72600 Suomi 100 1 43804U 18099AY 20093.17644033 -.00000121 00000-0 -57039-5 0 9993 2 43804 097.7089 166.0607 0016766 086.8226 273.4912 14.95444042072548 Al Farabi 2 1 43805U 18099AZ 20093.42413685 .00000710 00000-0 69025-4 0 9998 2 43805 97.7096 166.3679 0016939 86.4239 273.8919 14.95552958 72582 PWSat 2 1 43814U 18099BJ 20093.69694677 .00023855 00000-0 15133-2 0 9993 2 43814 97.7778 173.1010 0010482 112.4791 247.8285 15.08853797 72288 CHOMPTT 1 43855U 18104G 20093.08408280 .00001280 00000-0 52774-4 0 9993 2 43855 085.0356 225.7017 0017179 341.9206 018.1442 15.22840772071903 ISAT 1 43879U 18111D 20093.39235265 -.00000124 00000-0 -58797-5 0 9992 2 43879 97.7065 2.0307 0013975 133.9754 226.2622 14.96186993 67119 UWE-4 1 43880U 18111E 20093.71912549 -.00000160 00000-0 -90209-5 0 9991 2 43880 97.7077 2.5828 0013198 133.0442 227.1887 14.96422965 67170 Sparrow 1 43881U 18111F 20093.16935110 .00000708 00000-0 67315-4 0 9997 2 43881 097.7085 002.1012 0013622 132.8031 227.4338 14.96481136069085 Lume 1 1 43908U 18111AJ 20092.99797286 .00001215 00000-0 51344-4 0 9996 2 43908 97.2722 355.1606 0022848 56.0192 304.3213 15.24883072 70371 FO-98 1 43933U 19003B 20093.74605453 .00000795 00000-0 37621-4 0 9997 2 43933 97.2404 146.3473 0018953 143.7279 356.7648 15.22002767 67012 FO-99 1 43937U 19003F 20093.69227002 .00001382 00000-0 59081-4 0 9992 2 43937 97.2366 147.3253 0025694 129.8836 346.7113 15.24200484 67096 Delphini 1 1 44030U 98067PW 20092.95918801 .00020043 00000-0 21696-3 0 9991 2 44030 51.6364 342.2345 0004873 148.0850 212.0441 15.63554355 66535 MYSat 1 1 44045U 18092F 20093.28892219 .00002983 00000-0 93753-4 0 9995 2 44045 051.6435 052.0001 0012042 051.4699 308.7366 15.36275147063580 AstroCast 0.2 1 44083U 19018F 20093.66097299 .00001140 00000-0 53652-4 0 9991 2 44083 97.4293 155.7254 0014889 79.6804 280.6110 15.21507850 55853 AISTechSat 3 1 44103U 19018AB 20093.75982785 .00000938 00000-0 42750-4 0 9998 2 44103 97.4159 155.9448 0015295 92.9314 43.4083 15.23041018 55912 AISat 1 1 44104U 19018AC 20093.15858583 .00001003 00000-0 34452-4 0 9995 2 44104 097.4706 162.3308 0059773 122.9819 237.7187 15.30926732056132 Raavana-1 1 44329U 98067QE 20093.14603685 .00011402 00000-0 16486-3 0 9995 2 44329 051.6404 356.3173 0007001 082.1344 278.0442 15.56415560045118 Uguisu 1 44330U 98067QF 20093.02651180 .00010938 00000-0 15884-3 0 9991 2 44330 51.6405 357.0159 0006959 80.4056 279.7722 15.56345817 45076 NepaliSat-1 1 44331U 98067QG 20093.13982950 .00011494 00000-0 16595-3 0 9994 2 44331 051.6405 356.2754 0006994 083.3105 276.8683 15.56446048045101 Prox-1 1 44339U 19036A 20093.10005249 .00001094 00000-0 21064-3 0 9997 2 44339 024.0037 232.2958 0011597 035.6419 324.4877 14.52908454041016 Oculus-ASR 1 44348U 19036K 20093.30584192 .00016412 00000-0 24861-3 0 9996 2 44348 028.5153 162.2592 0373106 216.1892 141.2959 15.01055403042343 Armadillo 1 44352U 19036P 20093.51210820 .00023580 00000-0 35974-3 0 9999 2 44352 28.5306 158.3946 0362640 221.8913 135.3390 15.03149203 42342 NO-104 1 44354U 19036R 20093.48691688 .00015200 00000-0 22672-3 0 9993 2 44354 28.5315 159.0672 0369846 220.3813 136.8760 15.01992760 42378 NO-103 1 44355U 19036S 20092.87836433 .00025299 00000-0 36702-3 0 9993 2 44355 28.5314 158.0318 0353833 222.0647 135.2265 15.05998532 42333 CP9 1 44360U 19036X 20093.41884078 .00051100 -57347-5 61699-3 0 9993 2 44360 28.5177 145.2914 0342413 243.2563 113.2601 15.11696411 42383 Move-IIb 1 44398U 19038N 20093.19384517 .00001273 00000-0 77043-4 0 9999 2 44398 097.5283 055.4433 0026376 033.3922 326.8966 15.12152645041056 SONATE 1 44400U 19038Q 20093.01332887 .00000553 00000-0 35902-4 0 9995 2 44400 97.5313 55.2843 0026185 32.3886 327.8945 15.11879036 41027 BeeSat 9 1 44412U 19038AC 20092.84533529 .00001126 00000-0 68636-4 0 9991 2 44412 97.5302 55.1790 0023954 38.7129 321.5813 15.12169626 40694 JAISAT-1 1 44419U 19038F 20093.15467193 .00000969 00000-0 58868-4 0 9996 2 44419 097.5304 055.6905 0022729 037.1921 323.0879 15.12652258041067 LightSail-2 1 44420U 19036AC 20093.07358212 .00005894 00000-0 12903-2 0 9998 2 44420 24.0105 230.2011 0022970 6.5935 353.4862 14.54975309 39173 Taurus 1 1 44530U 19059C 20093.79765237 .00001480 00000-0 43290-3 0 9994 2 44530 98.5701 174.1603 0014849 32.5617 327.6481 14.45399894 29413 MO-106 1 44830U 19084G 20093.59732584 .00044248 00000-0 33562-3 0 9992 2 44830 96.9875 322.3552 0033820 165.0521 195.1751 15.71436008 18512 TRSI-Sat 1 44831U 19084H 20092.89684279 .00041533 00000-0 31706-3 0 9994 2 44831 96.9885 321.6695 0033745 166.9449 193.2696 15.71299002 18416 MO-105 1 44832U 19084J 20093.57478984 .00045655 00000-0 33840-3 0 9995 2 44832 96.9887 322.3945 0033060 164.1316 196.0992 15.72008641 18517 Duchifat 3 1 44854U 19089C 20093.62656121 .00000441 00000-0 42105-4 0 9990 2 44854 36.9665 186.4551 0006855 173.7672 186.3151 14.99010862 16911 OPS-SAT 1 44878U 19092F 20093.23632415 -.00000066 00000-0 00000 0 0 9994 2 44878 97.4687 277.8132 0012700 257.0700 102.9204 15.15336350 15999 FloripaSat 1 1 44885U 19093G 20093.77278702 .00000216 00000-0 33958-4 0 9996 2 44885 97.9613 170.3987 0013332 296.3269 63.6569 14.81992158 15492 SwampSat-2 1 45115U 19071E 20093.01454897 .00010437 00000-0 32419-3 0 9993 2 45115 51.6432 12.5731 0013710 137.9363 222.2674 15.33844424 9385 HuskySat-1 1 45119U 19071J 20093.21334694 .00001155 00000-0 46909-4 0 9998 2 45119 51.6442 11.6487 0012812 136.7999 223.3990 15.33295521 9428 QARMAN 1 45257U 98067RA 20093.20021742 .00005313 00000-0 99975-4 0 9990 2 45257 051.6431 004.1753 0009158 081.3798 278.8228 15.50286152006675 AztechSat-1 1 45258U 98067RB 20093.00812438 .00005662 00000-0 10635-3 0 9991 2 45258 51.6428 5.1407 0006998 64.2977 295.8734 15.50203922 6616 /EX
